OKEAN-0
1 25860U 99039A 15260.03181079 .00000219 00000-0 39288-4 0 9990
2 25860 98.1053 228.2907 0001750 73.8147 335.3654 14.76131889869530
NOAA-16
1 26536U 00055A 15260.49615671 -.00000009 00000-0 19417-4 0 9991
2 26536 98.9340 326.3477 0010003 336.9637 23.1085 14.13108251772696
NOAA-17
1 27453U 02032A 15260.48961727 .00000002 00000-0 18325-4 0 9991
2 27453 98.3493 241.9571 0010447 273.1662 86.8323 14.24898958687808
NOAA-18
1 28654U 05018A 15260.52096704 .00000018 00000-0 35045-4 0 9996
2 28654 99.1904 255.4444 0015248 63.6562 296.6173 14.12233234532105
NOAA-19
1 33591U 09005A 15260.50042587 .00000138 00000-0 10026-3 0 9994
2 33591 98.9987 210.6399 0012937 270.9131 89.0558 14.11977291340518
HUBBLE
1 20580U 90037B 15259.47223516 .00000982 00000-0 51374-4 0 9999
2 20580 28.4700 272.0508 0003128 134.6479 349.8165 15.07687858193600
ISS
1 25544U 98067A 15260.76004488 .00000171 00000-0 98781-5 0 9998
2 25544 51.6463 341.8374 0005150 287.8348 217.7902 15.54037925962442
CO-58
1 28895U 05043F 15260.73869367 .00000303 00000-0 67857-4 0 9990
2 28895 97.8225 83.6888 0017278 8.9159 351.2347 14.62895463527125
FALCON
1 30776U 07006E 15260.75455866 .00004668 00000-0 18181-3 0 9992
2 30776 35.4271 140.3451 0002024 327.2361 82.5048 15.25491851470444
MAST
1 31126U 07012K 15259.86745296 .00000313 00000-0 77169-4 0 9993
2 31126 97.9715 223.7904 0091219 10.8335 18.3408 14.56140271446832
CAPE1
1 31130U 07012P 15260.36688236 .00000486 00000-0 11472-3 0 9990
2 31130 97.9929 221.6309 0097971 29.3403 331.3247 14.55605651446298
COMPASS
1 32787U 08021E 15260.08715047 .00001168 00000-0 12327-3 0 9998
2 32787 97.6422 304.9106 0014572 106.7368 253.5451 14.91062604400206
AAUSAT2
1 32788U 08021F 15260.75341966 .00001434 00000-0 14609-3 0 9999
2 32788 97.6432 307.2288 0014018 101.3954 258.8841 14.92143885400407
DO-64
1 32789U 08021G 15260.82048824 .00002322 00000-0 18757-3 0 9990
2 32789 97.6607 319.6680 0012982 109.5988 313.7933 15.00737420400979
CO-66
1 32791U 08021J 15260.83251097 .00000799 00000-0 90321-4 0 9996
2 32791 97.6418 303.1959 0015342 111.0929 249.1931 14.89039610400102
RS-30
1 32953U 08025A 15260.79429896 .00000010 00000-0 -13620-7 0 9996
2 32953 82.4989 276.6488 0017637 236.0058 123.9347 12.43063634332114
METEOR-M
1 35865U 09049A 15260.75994083 -.00000042 00000-0 22757-6 0 9994
2 35865 98.4923 297.7491 0002254 178.1516 315.8851 14.22048070311368
RS-38
1 35869U 09049E 15260.67944185 .00000040 00000-0 37006-4 0 9995
2 35869 98.4844 297.2562 0004130 192.0853 168.0225 14.22309347311407
JUGNU
1 37839U 11058B 15259.71676218 .00000354 00000-0 47342-4 0 9991
2 37839 19.9624 7.6268 0019028 335.6804 171.0478 14.12487946203178
SRMSAT
1 37841U 11058D 15260.70537259 .00000329 00000-0 35720-4 0 9995
2 37841 19.9727 30.2202 0011738 268.8356 221.1791 14.10496718203028
RAX-2
1 37853U 11061D 15260.66563103 .00002905 00000-0 18094-3 0 9990
2 37853 101.6974 157.1947 0194359 164.8765 195.8368 14.96864418210934
AUBIESAT
1 37854U 11061E 15260.17089360 .00002073 00000-0 12800-3 0 9990
2 37854 101.6949 160.4726 0185500 160.5984 200.2408 14.99033096210998
HRBE
1 37855U 11061F 15260.18750085 .00002432 00000-0 14794-3 0 9994
2 37855 101.6935 158.8258 0195603 163.6735 197.0895 14.97836041210923
HORYU-2
1 38340U 12025D 15260.14002663 .00000613 00000-0 10030-3 0 9991
2 38340 98.3236 232.5003 0012251 157.6785 202.4958 14.74486236179086
RS-40
1 38735U 12041C 15260.70698863 .00000040 00000-0 21992-3 0 9995
2 38735 82.4806 2.2873 0016313 342.3857 17.6651 12.42570110142404
PROITERES
1 38756U 12047B 15260.80990628 .00000335 00000-0 56604-4 0 9995
2 38756 98.2256 1.6912 0012473 8.0487 352.0919 14.75918080162669
BEESAT-3
1 39134U 13015E 15260.37756829 .00002688 00000-0 16089-3 0 9992
2 39134 64.8712 122.3495 0026099 239.6606 120.1937 15.13047791132641
BEESAT-2
1 39136U 13015G 15260.07400142 .00002339 00000-0 14841-3 0 9992
2 39136 64.8720 126.5049 0026289 238.7014 121.1535 15.11267827132543
ZACUBE-1
1 39417U 13066B 15260.83349755 .00000589 00000-0 82570-4 0 9996
2 39417 97.7209 319.8388 0060019 193.3458 166.6170 14.79891351 98337
TRITON-1
1 39427U 13066M 15260.17032789 .00000433 00000-0 78793-4 0 9990
2 39427 97.7057 305.4717 0114394 232.9604 126.1096 14.66788727 97341
DELFIN3XT
1 39428U 13066N 15260.86532427 .00000693 00000-0 12271-3 0 9997
2 39428 97.7066 304.2750 0122719 236.2279 122.7188 14.65623508 97316
GOMX-1
1 39430U 13066Q 15260.57547254 .00000456 00000-0 93711-4 0 9998
2 39430 97.7004 296.9888 0152145 258.6520 99.7541 14.58203057 96841
MO-76
1 39436U 13066W 15260.80527610 .00012484 00000-0 77380-3 0 9991
2 39436 97.7393 337.6880 0022104 146.4644 213.7989 15.09692893 99456
LO-74
1 39440U 13066AA 15260.68855902 .00000526 00000-0 82079-4 0 9996
2 39440 97.7149 314.2497 0081241 207.9240 151.7599 14.74694847 97961
PUCPSAT-1
1 39442U 13066AC 15260.77112811 .00000964 00000-0 10773-3 0 9990
2 39442 97.7315 328.6491 0033175 174.8169 185.3398 14.88871670 97647
SPROUT
1 39770U 14029E 15260.08794415 .00000995 00000-0 12567-3 0 9991
2 39770 97.8744 355.6744 0008369 258.7526 101.2773 14.84088006 71268
POPSAT-HIP1
1 40028U 14033U 15260.70340349 .00000885 00000-0 10435-3 0 9996
2 40028 97.9452 161.1603 0012796 237.3330 122.6658 14.87232840 67536
EO-80
1 40032U 14033Y 15260.85346351 .00000730 00000-0 87894-4 0 9999
2 40032 97.9416 160.8953 0010950 230.5366 129.4882 14.86915200 67541
VELOX-1
1 40057U 14034E 15260.73976135 .00000834 00000-0 12864-3 0 9992
2 40057 98.2127 340.3490 0010251 307.7582 52.2698 14.76052016 65534
DAURIA DX 1
1 40071U 14037C 15260.72246546 .00000394 00000-0 58920-4 0 9991
2 40071 98.3513 335.9181 0007632 309.1632 50.8904 14.80500519 64486
UKUBE-1
1 40074U 14037F 15260.84507769 .00000794 00000-0 10632-3 0 9995
2 40074 98.3538 337.1310 0003840 320.5493 39.5431 14.82414219 64564
HODOYOSHI-1
1 40299U 14070B 15260.80740483 .00001953 00000-0 94191-4 0 9990
2 40299 97.4530 341.1749 0013148 163.3019 344.7893 15.19825206 47887
CHUBUSAT-1
1 40300U 14070C 15260.73034416 .00002032 00000-0 10224-3 0 9990
2 40300 97.4499 340.1179 0022202 168.4345 346.6265 15.18164411 47819
QSAT-EOS
1 40301U 14070D 15260.72814067 .00003846 00000-0 19018-3 0 9992
2 40301 97.4458 339.3729 0031689 170.3870 344.7484 15.17987871 47779
TSUBAME
1 40302U 14070E 15260.72391748 .00002166 00000-0 12203-3 0 9992
2 40302 97.4433 337.6296 0042591 176.1831 351.0585 15.13506540 47665
FIREBIRD FU3
1 40377U 15003B 15260.79702337 .00003054 00000-0 15303-3 0 9999
2 40377 99.1090 311.4444 0153725 310.3204 48.4671 15.08701703 34502
FIREBIRD FU4
1 40378U 15003C 15260.86062950 .00002853 00000-0 14319-3 0 9990
2 40378 99.1089 311.5279 0154012 310.0620 48.7179 15.08702865 34514
GRIFEX
1 40379U 15003D 15260.81436964 .00002932 00000-0 15014-3 0 9997
2 40379 99.1104 311.2705 0155770 311.8960 46.9062 15.07788102 34497
LAMBDA-SAT
1 40458U 98067GB 15136.30676273 .20783109 12527-4 14817-2 0 9995
2 40458 051.6075 233.7697 0010355 318.5347 043.1720 16.39926603 21161
NO-84
1 40654U 15260.41543446 .00012363 00000-0 30491-3 0 01294
2 40654 054.9919 179.7706 0243117 115.6820 246.9520 15.15986400018158
NO-83
1 40655U 15260.36591541 .00014679 00000-0 35304-3 0 01355
2 40655 054.9893 179.4882 0239352 116.0020 246.5862 15.17113132018156
DEORBITSAIL
1 40719U 15032E 15260.87024257 .00000860 00000-0 13611-3 0 9990
2 40719 98.0436 149.5593 0018339 37.2975 322.9507 14.74704376 10198
